Overview Statistics Trail Chart Weather Telemetry Raw packets
 

This is the latest recevied weather packets stored in our database for station/object HS3UAA-1. If no packets are shown the sender has not sent any weather packets the latest 10 day(s).

<< 1 2 3 4 5 >>
Time Temp. Humidity Pressure Rain* Wind** Luminosity Snow
1788662831 28.89° C 43% 998 hPa - - 0 W/m² -
1788662509 28.89° C 43% 998 hPa - - 0 W/m² -
1788662187 28.89° C 43% 998 hPa - - 0 W/m² -
1788661865 28.89° C 44% 998 hPa - - 0 W/m² -
1788661543 28.89° C 48% 998 hPa - - 0 W/m² -
1788661221 28.89° C 43% 998 hPa - - 0 W/m² -
1788660899 28.89° C 43% 998 hPa - - 0 W/m² -
1788660577 28.89° C 44% 998 hPa - - 0 W/m² -
1788660255 30° C 44% 998 hPa - - 0 W/m² -
1788659933 28.89° C 47% 998 hPa - - 0 W/m² -
1788659611 28.89° C 45% 998 hPa - - 0 W/m² -
1788659289 29.44° C 46% 998 hPa - - 0 W/m² -
1788658967 29.44° C 44% 998 hPa - - 0 W/m² -
1788658644 28.89° C 49% 998 hPa - - 0 W/m² -
1788658322 28.89° C 45% 998 hPa - - 0 W/m² -
1788658000 29.44° C 46% 998 hPa - - 0 W/m² -
1788657678 28.89° C 46% 998 hPa - - 0 W/m² -
1788657356 29.44° C 44% 998 hPa - - 0 W/m² -
1788657034 29.44° C 49% 998 hPa - - 0 W/m² -
1788656712 28.89° C 46% 997 hPa - - 0 W/m² -
1788656390 30° C 48% 997 hPa - - 0 W/m² -
1788656068 29.44° C 46% 997 hPa - - 0 W/m² -
1788655746 29.44° C 44% 997 hPa - - 0 W/m² -
1788655424 30° C 47% 997 hPa - - 0 W/m² -
1788655102 30° C 43% 997 hPa - - 0 W/m² -

* Rain since midnight (hover to see other rain measurements)
** Current wind speed in m/s (hover to see current wind gust speed)